Project,Study,Ord_Occ,Event_Num,Cast_ID,Date_Time_UTC,Date_Time_PST,Lat_Dec,Lon_Dec,Sta_ID,Line,Sta,Depth,Pressure,PrQ,Temp1,Temp1Q,Temp2,Temp2Q,TempAve,Salt1,Salt1Q,Salt1_Corr,Salt2,Salt2Q,Salt2_Corr,SaltAve_Corr,Ox1,Ox1Q,Ox1_CruiseCorr,Ox1_StaCorr,Ox2,Ox2Q,Ox2_CruiseCorr,Ox2_StaCorr,OxAve_StaCorr,Ox1uM,Ox1uM_CruiseCorr,Ox1uM_StaCorr,Ox2uM,Ox2uM_CruiseCorr,Ox2uM_StaCorr,OxAveuM_StaCorr,FluorV,FluorQ,EstChl_CruiseCorr,EstChl_StaCorr,ISUSV,ISUSQ,EstNO3_CruiseCorr,EstNO3_StaCorr,SigThetaTS1,SigThetaTS1Q,SigThetaTS2,SigThetaTS2Q,BAT,XMiss,TransQ,pH,pHQ,SPAR,SPARQ,PAR,PARQ,PoT1,PoT2,DynHt,SVA,OxSat1,OxSat2,BTL_Depth,BTL_Temp,SaltB,OxB,OxBuM,Chl-a,Phaeo,NO3,NO2,NH4,PO4,SIL
CalCOFI,2007SR,024,25,2007_024u,18-Jul-2020 05:25:42,17-Jul-2020 21:25:42,32.41848,-119.96040,090.0 060.0,090.0,060.0,516.000,520.292,,5.9827,,5.9825,,5.9826,34.2824,,34.2826,34.2840,,34.2856,34.2841,0.3421,,0.3398,0.3301,1.9055,,0.6078,0.6377,0.4839,14.878,15.0430,14.9416,82.862,,29.4831,22.2124,0.0311,,,,,,,,26.9934,,26.9947,,0.6286,85.4587,,7.524,,1.9043E+00,,1.0000E-12,,5.9374,5.9372,0.9024,,4.927,27.439,,,,,,,,,,,,
CalCOFI,2007SR,024,25,2007_024u,18-Jul-2020 05:25:55,17-Jul-2020 21:25:55,32.41848,-119.96041,090.0 060.0,090.0,060.0,515.000,519.282,,5.9833,,5.9833,,5.9833,34.2822,,34.2824,34.2838,,34.2854,34.2839,0.3407,,0.3383,0.3287,1.8899,,0.5706,0.5987,0.4637,14.816,14.9783,14.8770,82.186,,27.7992,21.3381,0.0313,,,,,,,,26.9932,,26.9945,,0.6292,85.4451,,7.524,,1.9043E+00,,1.0000E-12,,5.9381,5.9381,0.9035,,4.906,27.215,515,5.983,34.2830,0.334,14.59,,,40.10,0.00,0.00,3.16,77.67
CalCOFI,2007SR,024,25,2007_024u,18-Jul-2020 05:26:04,17-Jul-2020 21:26:04,32.41848,-119.96042,090.0 060.0,090.0,060.0,514.000,518.273,,5.9822,,5.9816,,5.9819,34.2808,,34.2810,34.2817,,34.2833,34.2822,0.3452,,0.3430,0.3334,1.8793,,0.5453,0.5722,0.4528,15.010,15.1808,15.0793,81.723,,26.6459,20.8626,0.0316,,,,,,,,26.9923,,26.9931,,0.6287,85.4563,,7.524,,1.9043E+00,,1.0000E-12,,5.9371,5.9365,0.9040,,4.970,27.060,,,,,,,,,,,,
CalCOFI,2007SR,024,25,2007_024u,18-Jul-2020 05:26:06,17-Jul-2020 21:26:06,32.41848,-119.96042,090.0 060.0,090.0,060.0,513.000,517.263,,5.9786,,5.9788,,5.9787,34.2786,,34.2788,34.2802,,34.2818,34.2803,0.3438,,0.3415,0.3319,1.8804,,0.5479,0.5750,0.4535,14.952,15.1203,15.0188,81.771,,26.7654,20.8921,0.0318,,,,,,,,26.9910,,26.9922,,0.6288,85.4549,,7.524,,1.9043E+00,,1.0000E-12,,5.9337,5.9338,0.9040,,4.950,27.074,,,,,,,,,,,,
CalCOFI,2007SR,024,25,2007_024u,18-Jul-2020 05:26:07,17-Jul-2020 21:26:07,32.41848,-119.96042,090.0 060.0,090.0,060.0,512.000,516.254,,5.9780,,5.9781,,5.9781,34.2784,,34.2786,34.2800,,34.2816,34.2801,0.3467,,0.3446,0.3349,1.8814,,0.5503,0.5775,0.4562,15.076,15.2497,15.1482,81.815,,26.8750,21.0116,0.0313,,,,,,,,26.9909,,26.9921,,0.6289,85.4518,,7.524,,1.9043E+00,,1.0000E-12,,5.9331,5.9332,0.9040,,4.991,27.089,,,,,,,,,,,,
CalCOFI,2007SR,024,25,2007_024u,18-Jul-2020 05:26:09,17-Jul-2020 21:26:09,32.41848,-119.96040,090.0 060.0,090.0,060.0,511.000,515.244,,5.9789,,5.9791,,5.9790,34.2783,,34.2785,34.2797,,34.2813,34.2799,0.3494,,0.3474,0.3377,1.8805,,0.5481,0.5752,0.4565,15.194,15.3729,15.2712,81.777,,26.7804,21.0258,0.0312,,,,,,,,26.9907,,26.9918,,0.6287,85.4563,,7.524,,1.9043E+00,,1.0000E-12,,5.9341,5.9343,0.9040,,5.031,27.076,,,,,,,,,,,,
CalCOFI,2007SR,024,25,2007_024u,18-Jul-2020 05:26:10,17-Jul-2020 21:26:10,32.41848,-119.96040,090.0 060.0,090.0,060.0,510.000,514.234,,5.9831,,5.9831,,5.9831,34.2779,,34.2781,34.2793,,34.2809,34.2795,0.3482,,0.3461,0.3365,1.8703,,0.5238,0.5497,0.4431,15.141,15.3176,15.2160,81.333,,25.6744,20.4452,0.0310,,,,,,,,26.9898,,26.9910,,0.6287,85.4562,,7.524,,1.9043E+00,,1.0000E-12,,5.9384,5.9384,0.9040,,5.014,26.932,,,,,,,,,,,,
CalCOFI,2007SR,024,25,2007_024u,18-Jul-2020 05:26:11,17-Jul-2020 21:26:11,32.41848,-119.96040,090.0 060.0,090.0,060.0,509.000,513.225,,5.9863,,5.9864,,5.9864,34.2772,,34.2774,34.2787,,34.2803,34.2789,0.3496,,0.3476,0.3379,1.8721,,0.5281,0.5542,0.4461,15.201,15.3802,15.2785,81.412,,25.8712,20.5749,0.0312,,,,,,,,26.9889,,26.9900,,0.6287,85.4562,,7.524,,1.9043E+00,,1.0000E-12,,5.9417,5.9418,0.9040,,5.034,26.960,,,,,,,,,,,,
CalCOFI,2007SR,024,25,2007_024u,18-Jul-2020 05:26:12,17-Jul-2020 21:26:12,32.41848,-119.96042,090.0 060.0,090.0,060.0,508.000,512.215,,5.9881,,5.9882,,5.9882,34.2767,,34.2769,34.2780,,34.2796,34.2783,0.3559,,0.3542,0.3445,1.8750,,0.5350,0.5615,0.4530,15.478,15.6694,15.5674,81.536,,26.1801,20.8738,0.0305,,,,,,,,26.9882,,26.9892,,0.6290,85.4502,,7.524,,1.9043E+00,,1.0000E-12,,5.9435,5.9436,0.9040,,5.126,27.002,,,,,,,,,,,,
CalCOFI,2007SR,024,25,2007_024u,18-Jul-2020 05:26:13,17-Jul-2020 21:26:13,32.41848,-119.96042,090.0 060.0,090.0,060.0,507.000,511.206,,5.9920,,5.9923,,5.9922,34.2762,,34.2764,34.2777,,34.2793,34.2779,0.3548,,0.3530,0.3434,1.8743,,0.5333,0.5597,0.4516,15.427,15.6161,15.5142,81.508,,26.1103,20.8123,0.0312,,,,,,,,26.9873,,26.9884,,0.6287,85.4562,,7.524,,1.9043E+00,,1.0000E-12,,5.9475,5.9478,0.9040,,5.109,26.995,,,,,,,,,,,,
CalCOFI,2007SR,024,25,2007_024u,18-Jul-2020 05:26:14,17-Jul-2020 21:26:14,32.41848,-119.96042,090.0 060.0,090.0,060.0,506.000,510.196,,6.0046,,6.0045,,6.0046,34.2762,,34.2764,34.2778,,34.2794,34.2779,0.3574,,0.3557,0.3461,1.8733,,0.5309,0.5572,0.4517,15.543,15.7372,15.6352,81.463,,25.9982,20.8167,0.0316,,,,,,,,26.9857,,26.9870,,0.6291,85.4481,,7.524,,1.9043E+00,,1.0000E-12,,5.9602,5.9600,0.9040,,5.149,26.988,,,,,,,,,,,,
CalCOFI,2007SR,024,25,2007_024u,18-Jul-2020 05:26:14,17-Jul-2020 21:26:14,32.41848,-119.96042,090.0 060.0,090.0,060.0,505.000,509.187,,6.0117,,6.0120,,6.0119,34.2753,,34.2755,34.2767,,34.2783,34.2769,0.3588,,0.3572,0.3475,1.8687,,0.5199,0.5457,0.4466,15.605,15.8020,15.6999,81.265,,25.5050,20.6025,0.0314,,,,,,,,26.9841,,26.9852,,0.6292,85.4445,,7.524,,1.9043E+00,,1.0000E-12,,5.9673,5.9676,0.9040,,5.170,26.927,,,,,,,,,,,,
CalCOFI,2007SR,024,25,2007_024u,18-Jul-2020 05:26:15,17-Jul-2020 21:26:15,32.41848,-119.96042,090.0 060.0,090.0,060.0,504.000,508.177,,6.0204,,6.0209,,6.0207,34.2750,,34.2752,34.2762,,34.2778,34.2765,0.3630,,0.3616,0.3519,1.8626,,0.5054,0.5305,0.4412,15.786,15.9909,15.8887,80.999,,24.8424,20.3656,0.0320,,,,,,,,26.9828,,26.9837,,0.6294,85.4408,,7.524,,1.9043E+00,,1.0000E-12,,5.9761,5.9765,0.9040,,5.232,26.844,,,,,,,,,,,,
CalCOFI,2007SR,024,25,2007_024u,18-Jul-2020 05:26:17,17-Jul-2020 21:26:17,32.41848,-119.96042,090.0 060.0,090.0,060.0,503.000,507.168,,6.0289,,6.0298,,6.0294,34.2744,,34.2746,34.2759,,34.2775,34.2761,0.3582,,0.3566,0.3469,1.8668,,0.5154,0.5410,0.4440,15.578,15.7738,15.6717,81.179,,25.2908,20.4813,0.0312,,,,,,,,26.9813,,26.9823,,0.6288,85.4538,,7.524,,1.9043E+00,,1.0000E-12,,5.9846,5.9855,0.9040,,5.164,26.909,,,,,,,,,,,,
CalCOFI,2007SR,024,25,2007_024u,18-Jul-2020 05:26:18,17-Jul-2020 21:26:18,32.41848,-119.96042,090.0 060.0,090.0,060.0,502.000,506.158,,6.0353,,6.0357,,6.0355,34.2738,,34.2740,34.2752,,34.2768,34.2754,0.3625,,0.3611,0.3514,1.8651,,0.5114,0.5367,0.4441,15.763,15.9669,15.8647,81.108,,25.1139,20.4893,0.0312,,,,,,,,26.9800,,26.9810,,0.6297,85.4345,,7.525,,1.9043E+00,,1.0000E-12,,5.9911,5.9915,0.9040,,5.226,26.889,,,,,,,,,,,,
CalCOFI,2007SR,024,25,2007_024u,18-Jul-2020 05:26:19,17-Jul-2020 21:26:19,32.41848,-119.96042,090.0 060.0,090.0,060.0,501.000,505.149,,6.0427,,6.0426,,6.0427,34.2729,,34.2731,34.2742,,34.2758,34.2745,0.3649,,0.3636,0.3539,1.8655,,0.5123,0.5377,0.4458,15.870,16.0786,15.9763,81.126,,25.1587,20.5675,0.0315,,,,,,,,26.9782,,26.9793,,0.6289,85.4511,,7.524,,1.9043E+00,,1.0000E-12,,5.9985,5.9985,0.9040,,5.262,26.900,,,,,,,,,,,,
CalCOFI,2007SR,024,25,2007_024u,18-Jul-2020 05:26:20,17-Jul-2020 21:26:20,32.41848,-119.96042,090.0 060.0,090.0,060.0,500.000,504.139,,6.0459,,6.0458,,6.0459,34.2727,,34.2729,34.2741,,34.2757,34.2743,0.3633,,0.3619,0.3522,1.8615,,0.5028,0.5277,0.4400,15.800,16.0055,15.9033,80.951,,24.7228,20.3131,0.0313,,,,,,,,26.9777,,26.9788,,0.6295,85.4391,,7.525,,1.9043E+00,,1.0000E-12,,6.0019,6.0018,0.9040,,5.239,26.843,,,,,,,,,,,,
CalCOFI,2007SR,024,25,2007_024u,18-Jul-2020 05:26:21,17-Jul-2020 21:26:21,32.41848,-119.96042,090.0 060.0,090.0,060.0,499.000,503.130,,6.0483,,6.0490,,6.0487,34.2727,,34.2729,34.2741,,34.2757,34.2743,0.3655,,0.3642,0.3545,1.8577,,0.4937,0.5182,0.4364,15.894,16.1036,16.0013,80.786,,24.3118,20.1566,0.0317,,,,,,,,26.9774,,26.9784,,0.6296,85.4380,,7.525,,1.9043E+00,,1.0000E-12,,6.0043,6.0051,0.9040,,5.271,26.791,,,,,,,,,,,,
CalCOFI,2007SR,024,25,2007_024u,18-Jul-2020 05:26:22,17-Jul-2020 21:26:22,32.41848,-119.96042,090.0 060.0,090.0,060.0,498.000,502.120,,6.0518,,6.0520,,6.0519,34.2725,,34.2727,34.2738,,34.2754,34.2741,0.3685,,0.3673,0.3577,1.8580,,0.4944,0.5190,0.4384,16.025,16.2404,16.1380,80.798,,24.3417,20.2399,0.0324,,,,,,,,26.9768,,26.9778,,0.6294,85.4405,,7.525,,1.9043E+00,,1.0000E-12,,6.0079,6.0081,0.9040,,5.315,26.796,,,,,,,,,,,,
CalCOFI,2007SR,024,25,2007_024u,18-Jul-2020 05:26:23,17-Jul-2020 21:26:23,32.41848,-119.96042,090.0 060.0,090.0,060.0,497.000,501.111,,6.0542,,6.0545,,6.0544,34.2728,,34.2730,34.2742,,34.2758,34.2744,0.3646,,0.3633,0.3536,1.8613,,0.5023,0.5272,0.4404,15.855,16.0629,15.9606,80.940,,24.6954,20.3280,0.0309,,,,,,,,26.9767,,26.9778,,0.6298,85.4327,,7.524,,1.9043E+00,,1.0000E-12,,6.0104,6.0107,0.9040,,5.258,26.845,,,,,,,,,,,,
CalCOFI,2007SR,024,25,2007_024u,18-Jul-2020 05:26:24,17-Jul-2020 21:26:24,32.41848,-119.96042,090.0 060.0,090.0,060.0,496.000,500.101,,6.0618,,6.0618,,6.0618,34.2725,,34.2727,34.2740,,34.2756,34.2742,0.3663,,0.3650,0.3554,1.8555,,0.4884,0.5127,0.4341,15.929,16.1402,16.0378,80.688,,24.0677,20.0528,0.0313,,,,,,,,26.9755,,26.9767,,0.6298,85.4327,,7.525,,1.9043E+00,,1.0000E-12,,6.0181,6.0181,0.9040,,5.284,26.766,,,,,,,,,,,,
CalCOFI,2007SR,024,25,2007_024u,18-Jul-2020 05:26:25,17-Jul-2020 21:26:25,32.41848,-119.96042,090.0 060.0,090.0,060.0,495.000,499.092,,6.0689,,6.0685,,6.0687,34.2721,,34.2723,34.2735,,34.2751,34.2737,0.3723,,0.3713,0.3616,1.8559,,0.4894,0.5137,0.4377,16.191,16.4137,16.3111,80.709,,24.1200,20.2156,0.0319,,,,,,,,26.9743,,26.9754,,0.6298,85.4327,,7.526,,1.9043E+00,,1.0000E-12,,6.0252,6.0248,0.9040,,5.372,26.777,,,,,,,,,,,,
CalCOFI,2007SR,024,25,2007_024u,18-Jul-2020 05:26:26,17-Jul-2020 21:26:26,32.41848,-119.96042,090.0 060.0,090.0,060.0,494.000,498.082,,6.0818,,6.0814,,6.0816,34.2725,,34.2727,34.2738,,34.2754,34.2741,0.3695,,0.3684,0.3587,1.8565,,0.4908,0.5152,0.4370,16.067,16.2842,16.1818,80.732,,24.1773,20.1796,0.0318,,,,,,,,26.9729,,26.9740,,0.6292,85.4455,,7.525,,1.9043E+00,,1.0000E-12,,6.0382,6.0378,0.9040,,5.332,26.793,,,,,,,,,,,,
CalCOFI,2007SR,024,25,2007_024u,18-Jul-2020 05:26:27,17-Jul-2020 21:26:27,32.41848,-119.96042,090.0 060.0,090.0,060.0,493.000,497.073,,6.1007,,6.1010,,6.1009,34.2721,,34.2723,34.2738,,34.2754,34.2739,0.3732,,0.3723,0.3626,1.8556,,0.4887,0.5130,0.4378,16.232,16.4565,16.3539,80.695,,24.0851,20.2195,0.0314,,,,,,,,26.9703,,26.9715,,0.6295,85.4392,,7.525,,1.9043E+00,,1.0000E-12,,6.0571,6.0574,0.9040,,5.389,26.793,,,,,,,,,,,,
CalCOFI,2007SR,024,25,2007_024u,18-Jul-2020 05:26:28,17-Jul-2020 21:26:28,32.41848,-119.96042,090.0 060.0,090.0,060.0,492.000,496.063,,6.1023,,6.1028,,6.1026,34.2721,,34.2723,34.2735,,34.2751,34.2737,0.3729,,0.3719,0.3622,1.8558,,0.4892,0.5135,0.4379,16.217,16.4408,16.3382,80.703,,24.1050,20.2216,0.0312,,,,,,,,26.9700,,26.9711,,0.6298,85.4325,,7.526,,1.9043E+00,,1.0000E-12,,6.0588,6.0593,0.9040,,5.385,26.796,,,,,,,,,,,,
CalCOFI,2007SR,024,25,2007_024u,18-Jul-2020 05:26:30,17-Jul-2020 21:26:30,32.41848,-119.96042,090.0 060.0,090.0,060.0,491.000,495.054,,6.1046,,6.1055,,6.1051,34.2721,,34.2723,34.2736,,34.2752,34.2738,0.3709,,0.3699,0.3602,1.8550,,0.4872,0.5115,0.4359,16.130,16.3500,16.2475,80.669,,24.0203,20.1339,0.0314,,,,,,,,26.9697,,26.9708,,0.6298,85.4327,,7.526,,1.9043E+00,,1.0000E-12,,6.0611,6.0620,0.9040,,5.356,26.787,,,,,,,,,,,,
CalCOFI,2007SR,024,25,2007_024u,18-Jul-2020 05:26:31,17-Jul-2020 21:26:31,32.41848,-119.96042,090.0 060.0,090.0,060.0,490.000,494.044,,6.1087,,6.1091,,6.1089,34.2720,,34.2722,34.2734,,34.2750,34.2736,0.3709,,0.3699,0.3602,1.8546,,0.4863,0.5105,0.4354,16.129,16.3490,16.2464,80.651,,23.9755,20.1110,0.0306,,,,,,,,26.9691,,26.9702,,0.6298,85.4327,,7.526,,1.9043E+00,,1.0000E-12,,6.0653,6.0657,0.9040,,5.356,26.783,,,,,,,,,,,,
CalCOFI,2007SR,024,25,2007_024u,18-Jul-2020 05:26:32,17-Jul-2020 21:26:32,32.41848,-119.96042,090.0 060.0,090.0,060.0,489.000,493.035,,6.1115,,6.1121,,6.1118,34.2723,,34.2725,34.2737,,34.2753,34.2739,0.3707,,0.3696,0.3599,1.8507,,0.4770,0.5007,0.4303,16.121,16.3406,16.2381,80.483,,23.5570,19.8976,0.0313,,,,,,,,26.9690,,26.9700,,0.6297,85.4339,,7.526,,1.9043E+00,,1.0000E-12,,6.0682,6.0688,0.9040,,5.354,26.729,,,,,,,,,,,,
CalCOFI,2007SR,024,25,2007_024u,18-Jul-2020 05:26:32,17-Jul-2020 21:26:32,32.41848,-119.96042,090.0 060.0,090.0,060.0,488.000,492.025,,6.1246,,6.1255,,6.1251,34.2722,,34.2724,34.2739,,34.2755,34.2740,0.3705,,0.3694,0.3597,1.8464,,0.4667,0.4899,0.4248,16.114,16.3333,16.2308,80.296,,23.0912,19.6610,0.0312,,,,,,,,26.9672,,26.9684,,0.6298,85.4327,,7.526,,1.9043E+00,,1.0000E-12,,6.0814,6.0823,0.9040,,5.353,26.676,,,,,,,,,,,,
CalCOFI,2007SR,024,25,2007_024u,18-Jul-2020 05:26:33,17-Jul-2020 21:26:33,32.41848,-119.96042,090.0 060.0,090.0,060.0,487.000,491.016,,6.1325,,6.1327,,6.1326,34.2715,,34.2717,34.2730,,34.2746,34.2732,0.3717,,0.3707,0.3610,1.8471,,0.4684,0.4917,0.4264,16.164,16.3855,16.2829,80.327,,23.1684,19.7257,0.0322,,,,,,,,26.9657,,26.9668,,0.6298,85.4327,,7.526,,1.9043E+00,,1.0000E-12,,6.0893,6.0895,0.9040,,5.371,26.690,,,,,,,,,,,,
CalCOFI,2007SR,024,25,2007_024u,18-Jul-2020 05:26:34,17-Jul-2020 21:26:34,32.41848,-119.96042,090.0 060.0,090.0,060.0,486.000,490.007,,6.1335,,6.1337,,6.1336,34.2716,,34.2718,34.2729,,34.2745,34.2732,0.3771,,0.3763,0.3666,1.8443,,0.4617,0.4847,0.4257,16.401,16.6329,16.5301,80.206,,22.8670,19.6986,0.0316,,,,,,,,26.9656,,26.9665,,0.6298,85.4327,,7.526,,1.9043E+00,,1.0000E-12,,6.0904,6.0906,0.9040,,5.450,26.650,,,,,,,,,,,,
CalCOFI,2007SR,024,25,2007_024u,18-Jul-2020 05:26:35,17-Jul-2020 21:26:35,32.41848,-119.96042,090.0 060.0,090.0,060.0,485.000,488.997,,6.1365,,6.1376,,6.1371,34.2722,,34.2724,34.2735,,34.2751,34.2738,0.3789,,0.3782,0.3685,1.8441,,0.4612,0.4842,0.4264,16.479,16.7143,16.6115,80.194,,22.8371,19.7243,0.0313,,,,,,,,26.9657,,26.9665,,0.6298,85.4327,,7.528,,1.9043E+00,,1.0000E-12,,6.0935,6.0946,0.9040,,5.476,26.649,,,,,,,,,,,,
CalCOFI,2007SR,024,25,2007_024u,18-Jul-2020 05:26:35,17-Jul-2020 21:26:35,32.41848,-119.96042,090.0 060.0,090.0,060.0,484.000,487.988,,6.1441,,6.1449,,6.1445,34.2715,,34.2717,34.2727,,34.2743,34.2730,0.3743,,0.3734,0.3637,1.8458,,0.4653,0.4884,0.4261,16.277,16.5035,16.4008,80.269,,23.0239,19.7124,0.0313,,,,,,,,26.9641,,26.9650,,0.6301,85.4270,,7.528,,1.9043E+00,,1.0000E-12,,6.1012,6.1019,0.9040,,5.410,26.678,,,,,,,,,,,,
CalCOFI,2007SR,024,25,2007_024u,18-Jul-2020 05:26:36,17-Jul-2020 21:26:36,32.41848,-119.96042,090.0 060.0,090.0,060.0,483.000,486.978,,6.1464,,6.1466,,6.1465,34.2706,,34.2708,34.2718,,34.2734,34.2721,0.3737,,0.3728,0.3631,1.8457,,0.4650,0.4882,0.4257,16.251,16.4763,16.3737,80.263,,23.0090,19.6914,0.0312,,,,,,,,26.9631,,26.9640,,0.6301,85.4264,,7.528,,1.9043E+00,,1.0000E-12,,6.1035,6.1037,0.9040,,5.401,26.677,,,,,,,,,,,,
CalCOFI,2007SR,024,25,2007_024u,18-Jul-2020 05:26:38,17-Jul-2020 21:26:38,32.41848,-119.96042,090.0 060.0,090.0,060.0,482.000,485.969,,6.1465,,6.1472,,6.1469,34.2703,,34.2705,34.2718,,34.2734,34.2720,0.3754,,0.3746,0.3648,1.8454,,0.4643,0.4874,0.4261,16.327,16.5557,16.4529,80.252,,22.9816,19.7173,0.0312,,,,,,,,26.9629,,26.9639,,0.6298,85.4326,,7.528,,1.9043E+00,,1.0000E-12,,6.1038,6.1045,0.9040,,5.426,26.674,,,,,,,,,,,,
CalCOFI,2007SR,024,25,2007_024u,18-Jul-2020 05:26:39,17-Jul-2020 21:26:39,32.41848,-119.96042,090.0 060.0,090.0,060.0,481.000,484.960,,6.1571,,6.1619,,6.1595,34.2719,,34.2721,34.2743,,34.2759,34.2740,0.3813,,0.3807,0.3710,1.8444,,0.4619,0.4849,0.4280,16.583,16.8229,16.7199,80.209,,22.8745,19.7972,0.0316,,,,,,,,26.9628,,26.9640,,0.6298,85.4327,,7.528,,1.9043E+00,,1.0000E-12,,6.1144,6.1192,0.9040,,5.513,26.669,,,,,,,,,,,,
CalCOFI,2007SR,024,25,2007_024u,18-Jul-2020 05:26:41,17-Jul-2020 21:26:41,32.41848,-119.96042,090.0 060.0,090.0,060.0,480.000,483.950,,6.1782,,6.1798,,6.1790,34.2715,,34.2717,34.2724,,34.2740,34.2729,0.3805,,0.3799,0.3702,1.8433,,0.4593,0.4822,0.4262,16.547,16.7853,16.6824,80.162,,22.7574,19.7199,0.0317,,,,,,,,26.9597,,26.9602,,0.6301,85.4257,,7.528,,1.9043E+00,,1.0000E-12,,6.1355,6.1371,0.9040,,5.504,26.664,,,,,,,,,,,,
CalCOFI,2007SR,024,25,2007_024u,18-Jul-2020 05:26:41,17-Jul-2020 21:26:41,32.41848,-119.96042,090.0 060.0,090.0,060.0,479.000,482.941,,6.1783,,6.1784,,6.1784,34.2693,,34.2695,34.2705,,34.2721,34.2708,0.3876,,0.3873,0.3776,1.8432,,0.4591,0.4819,0.4298,16.855,17.1068,17.0036,80.156,,22.7425,19.8731,0.0317,,,,,,,,26.9580,,26.9589,,0.6298,85.4327,,7.528,,1.9043E+00,,1.0000E-12,,6.1357,6.1358,0.9040,,5.606,26.661,,,,,,,,,,,,
CalCOFI,2007SR,024,25,2007_024u,18-Jul-2020 05:26:42,17-Jul-2020 21:26:42,32.41848,-119.96042,090.0 060.0,090.0,060.0,478.000,481.931,,6.1806,,6.1810,,6.1808,34.2690,,34.2692,34.2702,,34.2718,34.2705,0.3888,,0.3886,0.3788,1.8428,,0.4581,0.4809,0.4299,16.909,17.1632,17.0600,80.140,,22.7026,19.8813,0.0316,,,,,,,,26.9574,,26.9583,,0.6298,85.4327,,7.528,,1.9043E+00,,1.0000E-12,,6.1381,6.1385,0.9040,,5.624,26.657,,,,,,,,,,,,
CalCOFI,2007SR,024,25,2007_024u,18-Jul-2020 05:26:43,17-Jul-2020 21:26:43,32.41848,-119.96042,090.0 060.0,090.0,060.0,477.000,480.922,,6.1923,,6.1921,,6.1922,34.2679,,34.2681,34.2694,,34.2710,34.2696,0.3897,,0.3895,0.3798,1.8421,,0.4564,0.4792,0.4295,16.946,17.2018,17.0985,80.107,,22.6204,19.8595,0.0310,,,,,,,,26.9551,,26.9563,,0.6298,85.4327,,7.528,,1.9043E+00,,1.0000E-12,,6.1498,6.1496,0.9040,,5.638,26.653,,,,,,,,,,,,
CalCOFI,2007SR,024,25,2007_024u,18-Jul-2020 05:26:44,17-Jul-2020 21:26:44,32.41848,-119.96042,090.0 060.0,090.0,060.0,476.000,479.913,,6.1990,,6.1998,,6.1994,34.2670,,34.2672,34.2683,,34.2699,34.2686,0.3917,,0.3916,0.3818,1.8421,,0.4564,0.4792,0.4305,17.032,17.2916,17.1882,80.110,,22.6279,19.9081,0.0321,,,,,,,,26.9535,,26.9544,,0.6302,85.4231,,7.528,,1.9043E+00,,1.0000E-12,,6.1566,6.1574,0.9040,,5.668,26.658,,,,,,,,,,,,
CalCOFI,2007SR,024,25,2007_024u,18-Jul-2020 05:26:45,17-Jul-2020 21:26:45,32.41848,-119.96042,090.0 060.0,090.0,060.0,475.000,478.903,,6.2068,,6.2079,,6.2074,34.2667,,34.2669,34.2682,,34.2698,34.2684,0.3911,,0.3910,0.3812,1.8416,,0.4553,0.4779,0.4296,17.009,17.2676,17.1643,80.085,,22.5656,19.8650,0.0313,,,,,,,,26.9523,,26.9533,,0.6298,85.4327,,7.528,,1.9043E+00,,1.0000E-12,,6.1645,6.1656,0.9040,,5.661,26.655,,,,,,,,,,,,
CalCOFI,2007SR,024,25,2007_024u,18-Jul-2020 05:26:46,17-Jul-2020 21:26:46,32.41848,-119.96042,090.0 060.0,090.0,060.0,474.000,477.894,,6.2145,,6.2151,,6.2148,34.2663,,34.2665,34.2676,,34.2692,34.2679,0.3997,,0.3999,0.3902,1.8407,,0.4531,0.4757,0.4330,17.383,17.6580,17.5543,80.046,,22.4684,20.0114,0.0310,,,,,,,,26.9509,,26.9519,,0.6298,85.4327,,7.528,,1.9043E+00,,1.0000E-12,,6.1722,6.1728,0.9040,,5.786,26.646,,,,,,,,,,,,
CalCOFI,2007SR,024,25,2007_024u,18-Jul-2020 05:26:48,17-Jul-2020 21:26:48,32.41848,-119.96042,090.0 060.0,090.0,060.0,473.000,476.884,,6.2244,,6.2250,,6.2247,34.2655,,34.2657,34.2669,,34.2685,34.2671,0.4046,,0.4051,0.3953,1.8399,,0.4512,0.4737,0.4345,17.596,17.8804,17.7765,80.015,,22.3912,20.0839,0.0311,,,,,,,,26.9490,,26.9501,,0.6298,85.4327,,7.528,,1.9043E+00,,1.0000E-12,,6.1822,6.1828,0.9040,,5.859,26.642,,,,,,,,,,,,
CalCOFI,2007SR,024,25,2007_024u,18-Jul-2020 05:26:48,17-Jul-2020 21:26:48,32.41848,-119.96042,090.0 060.0,090.0,060.0,472.000,475.875,,6.2385,,6.2384,,6.2385,34.2638,,34.2640,34.2654,,34.2670,34.2655,0.4075,,0.4081,0.3983,1.8391,,0.4493,0.4717,0.4350,17.723,18.0129,17.9089,79.978,,22.2991,20.1040,0.0318,,,,,,,,26.9458,,26.9471,,0.6298,85.4327,,7.528,,1.9043E+00,,1.0000E-12,,6.1963,6.1962,0.9040,,5.903,26.637,,,,,,,,,,,,
CalCOFI,2007SR,024,25,2007_024u,18-Jul-2020 05:26:49,17-Jul-2020 21:26:49,32.41848,-119.96042,090.0 060.0,090.0,060.0,471.000,474.866,,6.2498,,6.2502,,6.2500,34.2631,,34.2633,34.2644,,34.2660,34.2647,0.4122,,0.4130,0.4032,1.8383,,0.4474,0.4697,0.4365,17.925,18.2238,18.1196,79.943,,22.2119,20.1658,0.0329,,,,,,,,26.9438,,26.9448,,0.6298,85.4327,,7.528,,1.9043E+00,,1.0000E-12,,6.2077,6.2081,0.9040,,5.971,26.633,,,,,,,,,,,,
CalCOFI,2007SR,024,25,2007_024u,18-Jul-2020 05:26:50,17-Jul-2020 21:26:50,32.41848,-119.96042,090.0 060.0,090.0,060.0,470.000,473.856,,6.2594,,6.2604,,6.2599,34.2619,,34.2621,34.2632,,34.2648,34.2635,0.4169,,0.4179,0.4081,1.8376,,0.4457,0.4679,0.4380,18.128,18.4357,18.3314,79.912,,22.1347,20.2331,0.0313,,,,,,,,26.9416,,26.9425,,0.6298,85.4327,,7.528,,1.9043E+00,,1.0000E-12,,6.2173,6.2183,0.9040,,6.040,26.629,,,,,,,,,,,,
CalCOFI,2007SR,024,25,2007_024u,18-Jul-2020 05:26:51,17-Jul-2020 21:26:51,32.41848,-119.96042,090.0 060.0,090.0,060.0,469.000,472.847,,6.2609,,6.2614,,6.2612,34.2596,,34.2598,34.2608,,34.2624,34.2611,0.4202,,0.4214,0.4116,1.8373,,0.4450,0.4672,0.4394,18.275,18.5892,18.4847,79.901,,22.1073,20.2960,0.0317,,,,,,,,26.9396,,26.9405,,0.6298,85.4327,,7.528,,1.9043E+00,,1.0000E-12,,6.2190,6.2194,0.9040,,6.090,26.625,,,,,,,,,,,,
CalCOFI,2007SR,024,25,2007_024u,18-Jul-2020 05:26:52,17-Jul-2020 21:26:52,32.41848,-119.96042,090.0 060.0,090.0,060.0,468.000,471.838,,6.2578,,6.2582,,6.2580,34.2566,,34.2568,34.2578,,34.2594,34.2581,0.4207,,0.4219,0.4121,1.8373,,0.4450,0.4672,0.4397,18.294,18.6090,18.5045,79.899,,22.1023,20.3034,0.0310,,,,,,,,26.9376,,26.9386,,0.6298,85.4327,,7.528,,1.9043E+00,,1.0000E-12,,6.2159,6.2163,0.9040,,6.095,26.622,,,,,,,,,,,,
CalCOFI,2007SR,024,25,2007_024u,18-Jul-2020 05:26:53,17-Jul-2020 21:26:53,32.41848,-119.96042,090.0 060.0,090.0,060.0,467.000,470.828,,6.2599,,6.2600,,6.2600,34.2552,,34.2554,34.2565,,34.2581,34.2568,0.4209,,0.4221,0.4123,1.8369,,0.4440,0.4662,0.4393,18.306,18.6215,18.5170,79.886,,22.0699,20.2935,0.0320,,,,,,,,26.9363,,26.9373,,0.6298,85.4327,,7.528,,1.9043E+00,,1.0000E-12,,6.2181,6.2182,0.9040,,6.099,26.618,,,,,,,,,,,,
CalCOFI,2007SR,024,25,2007_024u,18-Jul-2020 05:26:54,17-Jul-2020 21:26:54,32.41848,-119.96042,090.0 060.0,090.0,060.0,466.000,469.819,,6.2634,,6.2634,,6.2634,34.2547,,34.2549,34.2560,,34.2576,34.2563,0.4239,,0.4252,0.4154,1.8365,,0.4431,0.4652,0.4403,18.434,18.7552,18.6505,79.869,,22.0275,20.3390,0.0321,,,,,,,,26.9354,,26.9365,,0.6298,85.4327,,7.528,,1.9043E+00,,1.0000E-12,,6.2217,6.2217,0.9040,,6.143,26.615,,,,,,,,,,,,
CalCOFI,2007SR,024,25,2007_024u,18-Jul-2020 05:26:56,17-Jul-2020 21:26:56,32.41848,-119.96042,090.0 060.0,090.0,060.0,465.000,468.810,,6.2646,,6.2645,,6.2646,34.2538,,34.2540,34.2550,,34.2566,34.2553,0.4281,,0.4296,0.4198,1.8363,,0.4426,0.4647,0.4423,18.618,18.9472,18.8424,79.856,,21.9952,20.4188,0.0312,,,,,,,,26.9346,,26.9355,,0.6298,85.4327,,7.528,,1.9043E+00,,1.0000E-12,,6.2229,6.2229,0.9040,,6.204,26.611,,,,,,,,,,,,
CalCOFI,2007SR,024,25,2007_024u,18-Jul-2020 05:26:57,17-Jul-2020 21:26:57,32.41848,-119.96042,090.0 060.0,090.0,060.0,464.000,467.800,,6.2712,,6.2730,,6.2721,34.2534,,34.2536,34.2549,,34.2565,34.2551,0.4284,,0.4299,0.4201,1.8356,,0.4409,0.4629,0.4415,18.632,18.9618,18.8570,79.828,,21.9254,20.3912,0.0312,,,,,,,,26.9333,,26.9343,,0.6298,85.4327,,7.528,,1.9043E+00,,1.0000E-12,,6.2296,6.2314,0.9040,,6.210,26.607,,,,,,,,,,,,
CalCOFI,2007SR,024,25,2007_024u,18-Jul-2020 05:26:57,17-Jul-2020 21:26:57,32.41848,-119.96042,090.0 060.0,090.0,060.0,463.000,466.791,,6.2831,,6.2839,,6.2835,34.2531,,34.2533,34.2546,,34.2562,34.2548,0.4316,,0.4333,0.4234,1.8349,,0.4393,0.4612,0.4423,18.770,19.1059,19.0010,79.795,,21.8432,20.4221,0.0321,,,,,,,,26.9316,,26.9327,,0.6298,85.4327,,7.528,,1.9043E+00,,1.0000E-12,,6.2416,6.2424,0.9040,,6.257,26.603,,,,,,,,,,,,